Location: Winter Haven
(28.0220°N, 81.7330°W)
Time: 12:18:03
(UTC-05:00)

Amateur Radio Satellites - All Passes

Search period start: 24 February 2017 11:48
Search period end: 25 February 2017 11:48
Location: Winter Haven, 28.0220°N, 81.7330°W

Satellite Date Start Highest point End Downlink Frequencies (MHz)
Time Altitude Azimuth
LO-87 24 Feb 11:58:45 12:01:41 24° 286° (WNW) 12:04:38 145.935 - 145.965
BUGSAT 1 24 Feb 12:03:59 12:07:51 48° 75° (ENE) 12:11:46 437.445
AIST 2D 24 Feb 12:06:44 12:08:43 14° 265° (W) 12:10:43 435.315
ESTCUBE 1 24 Feb 12:08:34 12:12:57 57° 284° (WNW) 12:17:19 437.505/2401.250
Oscar 19 24 Feb 12:17:29 12:21:07 20° 69° (ENE) 12:24:44 437.125/150
50 SAT 24 Feb 12:31:54 12:35:15 48° 100° (E) 12:38:36 437.505
DX 1 24 Feb 12:34:52 12:38:42 30° 99° (E) 12:42:31 434.975-435.025
DUCHIFAT 1 24 Feb 12:38:51 12:41:31 17° 264° (W) 12:44:13 145.980
VELOX 1 24 Feb 12:38:56 12:43:22 88° 280° (W) 12:47:48 145.980
UKube-1 24 Feb 12:49:19 12:53:08 31° 99° (E) 12:56:58 .
Gurwin Techsat 1B 24 Feb 12:52:32 12:56:43 24° 70° (ENE) 13:00:56 435.225
SPROUT 24 Feb 12:55:50 13:00:06 65° 284° (WNW) 13:04:22 437.525
AO-7 24 Feb 13:50:53 13:56:42 21° 61° (ENE) 14:02:30 .
Oscar 19 24 Feb 13:55:25 14:00:07 35° 261° (W) 14:04:49 437.125/150
ITUPSAT 1 24 Feb 14:03:48 14:05:22 11° 94° (E) 14:06:55 437.325
BEESAT 24 Feb 14:10:09 14:12:47 15° 95° (E) 14:15:23 436.000
DX 1 24 Feb 14:11:52 14:14:35 16° 290° (WNW) 14:17:17 434.975-435.025
AO-85 24 Feb 14:25:21 14:29:16 88° 244° (WSW) 14:33:20 145.980
UKube-1 24 Feb 14:26:17 14:28:52 16° 290° (WNW) 14:31:26 .
ITAMSAT 1 24 Feb 14:26:41 14:31:22 35° 72° (ENE) 14:36:04 435.822/435.867
Gurwin Techsat 1B 24 Feb 14:31:51 14:36:26 30° 262° (W) 14:41:04 435.225
ISS 24 Feb 15:21:37 15:24:00 18° 40° (NE) 15:26:23 437.550
ITUPSAT 1 24 Feb 15:38:44 15:43:21 49° 286° (WNW) 15:47:56 437.325
AO-7 24 Feb 15:40:21 15:48:39 69° 255° (WSW) 15:57:00 .
NO-84 24 Feb 15:45:41 15:47:04 13° 120° (ESE) 15:48:30 435.350 FM
BEESAT 24 Feb 15:46:10 15:50:37 39° 287° (WNW) 15:55:01 436.000
Tancredo 1 24 Feb 15:49:16 15:52:19 38° 45° (NE) 15:55:19 437.200
ITAMSAT 1 24 Feb 16:07:07 16:10:48 20° 264° (W) 16:14:32 435.822/435.867
BEESAT 3 24 Feb 16:12:17 16:16:17 69° 63° (ENE) 16:20:13 437.485
MOZHAYETS 4 24 Feb 16:15:50 16:20:18 52° 285° (WNW) 16:24:44
RS-15 24 Feb 16:22:11 16:32:35 39° 106° (ESE) 16:43:22 29.354- 29.394
PCSat 24 Feb 16:22:26 16:27:50 81° 294° (WNW) 16:33:17 145.827
M-CUBED/EXP-1 PRIME 24 Feb 16:44:06 16:45:21 11° 101° (E) 16:46:36 437.505
BEESAT 2 24 Feb 16:48:19 16:52:20 69° 63° (ENE) 16:56:19 435.950
KKS-1 24 Feb 16:53:41 16:58:09 88° 291° (WNW) 17:02:39 437.445
ISS 24 Feb 16:57:40 17:00:24 25° 233° (SW) 17:03:07 437.550
XW-2C 24 Feb 17:03:54 17:05:42 13° 71° (ENE) 17:07:30 145.795 - 145.815
CUTE-I 24 Feb 17:07:59 17:11:48 20° 69° (ENE) 17:15:37 437.470
CUBESAT XI-V 24 Feb 17:12:24 17:17:00 88° 110° (ESE) 17:21:35 437.345
LilacSat-2 24 Feb 17:18:25 17:21:25 22° 73° (ENE) 17:24:26 437.200
NUDT-PHONESAT 24 Feb 17:18:37 17:20:57 16° 72° (ENE) 17:23:18 437.300
NO-84 24 Feb 17:21:44 17:24:23 25° 315° (NW) 17:27:13 435.350 FM
Tancredo 1 24 Feb 17:28:01 17:28:15 10° 236° (SW) 17:28:28 437.200
STARS 24 Feb 17:30:25 17:34:51 77° 283° (WNW) 17:39:16 437.465
DOVE 4 24 Feb 18:06:13 18:10:22 76° 258° (WSW) 18:14:31 437.250
KAITUO 1B 24 Feb 18:14:46 18:18:32 75° 259° (W) 18:22:20 145.475/437.950
M-CUBED/EXP-1 PRIME 24 Feb 18:16:06 18:19:44 39° 289° (WNW) 18:23:38 437.505
XW-2F 24 Feb 18:18:04 18:21:48 53° 260° (W) 18:25:34 145.980 - 146.000
XW-2D 24 Feb 18:22:16 18:25:54 43° 261° (W) 18:29:35 145.860 - 145.880
XW-2B 24 Feb 18:27:22 18:30:57 38° 261° (W) 18:34:33 145.730 - 145.750
RS-15 24 Feb 18:33:15 18:44:35 51° 303° (WNW) 18:56:28 29.354- 29.394
XW-2C 24 Feb 18:36:15 18:39:34 28° 262° (W) 18:42:56 145.795 - 145.815
XW-2A 24 Feb 18:44:41 18:47:46 34° 75° (ENE) 18:50:52 145.665 - 145.685
CUTE-I 24 Feb 18:46:39 18:51:31 37° 261° (W) 18:56:25 437.470
NUDT-PHONESAT 24 Feb 18:51:44 18:54:39 22° 263° (W) 18:57:36 437.300
LilacSat-2 24 Feb 18:53:02 18:55:34 17° 264° (W) 18:58:07 437.200
STRAND 1 24 Feb 18:53:48 18:57:41 21° 97° (E) 19:01:32 437.568
CUTE 1.7 + AOD 2 24 Feb 19:00:58 19:04:58 39° 75° (ENE) 19:08:57 437.475
HO-68 24 Feb 19:08:06 19:15:11 65° 73° (ENE) 19:22:16 435.675
CUBEBUG 2 24 Feb 19:11:06 19:14:23 21° 71° (ENE) 19:17:44 437.445
Oscar 11 24 Feb 19:37:12 19:37:26 10° 68° (ENE) 19:37:39 .
JUGNU 24 Feb 19:46:59 19:50:36 17° 162° (SSE) 19:54:13 437.505
UWE-3 24 Feb 19:49:26 19:53:27 36° 74° (ENE) 19:57:35 435.000/436.395/437.385
AAUSAT CUBESAT 2 24 Feb 19:51:33 19:55:34 48° 76° (ENE) 19:59:34 437.432
SEEDS 24 Feb 19:59:41 20:03:50 55° 260° (W) 20:08:00 437.485
ZACube-1 24 Feb 20:12:16 20:16:20 39° 74° (ENE) 20:20:31 437.345
STRAND 1 24 Feb 20:32:16 20:36:47 31° 288° (WNW) 20:41:16 437.568
CUTE 1.7 + AOD 2 24 Feb 20:39:25 20:40:51 11° 266° (W) 20:42:18 437.475
CUBEBUG 2 24 Feb 20:47:19 20:50:48 23° 264° (W) 20:54:23 437.445
RS-15 24 Feb 20:56:40 21:00:58 12° 329° (NNW) 21:05:17 29.354- 29.394
HO-68 24 Feb 20:58:53 21:03:12 17° 265° (W) 21:07:31 435.675
AO-73 24 Feb 21:00:58 21:05:15 54° 260° (W) 21:09:39 145.935
Oscar 11 24 Feb 21:08:51 21:13:03 49° 260° (W) 21:17:17 .
SO-50 24 Feb 21:11:23 21:14:34 18° 109° (ESE) 21:17:43 436.795
UWE-3 24 Feb 21:27:50 21:29:59 13° 266° (W) 21:32:09 435.000/436.395/437.385
DELFI C3 24 Feb 21:31:02 21:35:01 85° 76° (ENE) 21:38:59 145.870
JUGNU 24 Feb 21:34:03 21:39:07 31° 170° (S) 21:44:13 437.505
YUBILEINY 24 Feb 21:45:59 21:54:29 55° 82° (E) 22:02:55 435.215
ZACube-1 24 Feb 21:50:46 21:52:43 13° 266° (W) 21:54:40 437.345
UNISAT 6 24 Feb 21:54:46 21:58:56 31° 98° (E) 22:03:02 437.425
TIGRISAT 24 Feb 21:55:22 21:59:27 29° 97° (E) 22:03:28 435.000
PRISM 24 Feb 21:57:41 22:01:45 82° 285° (WNW) 22:05:51 437.425
O/OREOS (USA 219) 24 Feb 21:58:05 22:01:20 20° 101° (E) 22:04:36 437.305
LO-87 24 Feb 22:27:36 22:30:54 39° 76° (ENE) 22:34:12 145.935 - 145.965
SRMSAT 24 Feb 22:32:44 22:36:47 19° 163° (SSE) 22:40:52 437.500
SO-50 24 Feb 22:50:28 22:54:45 34° 301° (WNW) 22:58:58 436.795
FO-29 24 Feb 22:56:34 23:04:00 67° 101° (E) 23:10:34 435.910
ESTCUBE 1 24 Feb 23:00:46 23:05:09 53° 76° (ENE) 23:09:33 437.505/2401.250
EO-79 24 Feb 23:04:33 23:06:23 12° 95° (E) 23:08:13 145.935-145.965
POLYITAN 1 24 Feb 23:20:34 23:23:50 21° 97° (E) 23:27:03 437.675
NANOSAT C BR1 24 Feb 23:20:51 23:23:54 19° 96° (E) 23:26:55 145.865
JUGNU 24 Feb 23:22:22 23:27:45 38° 180° (S) 23:33:10 437.505
QB50P2 24 Feb 23:23:16 23:26:47 25° 97° (E) 23:30:17 145.880/145.840
DX 1 24 Feb 23:26:04 23:27:19 11° 68° (ENE) 23:28:35 434.975-435.025
VELOX 1 24 Feb 23:29:29 23:33:23 33° 73° (ENE) 23:37:18 145.980
UNISAT 6 24 Feb 23:32:10 23:35:19 18° 290° (WNW) 23:38:27 437.425
TIGRISAT 24 Feb 23:32:32 23:35:51 19° 290° (WNW) 23:39:08 435.000
O/OREOS (USA 219) 24 Feb 23:36:52 23:40:30 24° 293° (WNW) 23:44:11 437.305
AIST 2D 24 Feb 23:37:00 23:40:32 68° 101° (E) 23:44:02 435.315
UKube-1 24 Feb 23:39:28 23:40:43 11° 68° (ENE) 23:41:56 .
SPROUT 24 Feb 23:42:18 23:46:10 36° 74° (ENE) 23:50:03 437.525
YUBILEINY 24 Feb 23:44:11 23:50:35 24° 276° (W) 23:57:00 435.215
BUGSAT 1 24 Feb 23:54:09 23:56:07 13° 95° (E) 23:58:04 437.445
NO-84 25 Feb 00:02:45 00:03:42 11° 39° (NE) 00:04:40 435.350 FM
SRMSAT 25 Feb 00:20:14 00:25:31 33° 171° (S) 00:30:49 437.500
DUCHIFAT 1 25 Feb 00:27:56 00:32:08 61° 284° (WNW) 00:36:19 145.980
50 SAT 25 Feb 00:31:52 00:35:15 46° 260° (W) 00:38:38 437.505
Oscar 19 25 Feb 00:37:28 00:39:02 11° 94° (E) 00:40:36 437.125/150
EO-79 25 Feb 00:38:16 00:42:11 36° 286° (WNW) 00:46:06 145.935-145.965
FO-29 25 Feb 00:43:22 00:48:05 18° 297° (WNW) 00:52:34 435.910
NANOSAT C BR1 25 Feb 00:56:03 00:59:29 24° 288° (WNW) 01:02:55 145.865
POLYITAN 1 25 Feb 00:56:07 00:59:27 22° 288° (WNW) 01:02:46 437.675
DX 1 25 Feb 00:58:56 01:03:03 44° 260° (W) 01:07:11 434.975-435.025
QB50P2 25 Feb 00:59:19 01:02:21 19° 289° (WNW) 01:05:22 145.880/145.840
VELOX 1 25 Feb 01:07:22 01:09:50 15° 265° (W) 01:12:17 145.980
JUGNU 25 Feb 01:11:19 01:16:24 30° 190° (S) 01:21:31 437.505
UKube-1 25 Feb 01:12:12 01:16:17 43° 260° (W) 01:20:23 .
Gurwin Techsat 1B 25 Feb 01:16:13 01:19:35 17° 96° (E) 01:22:56 435.225
PCSat 25 Feb 01:18:26 01:22:19 20° 57° (ENE) 01:26:09 145.827
SPROUT 25 Feb 01:20:20 01:22:07 12° 265° (W) 01:23:55 437.525
BUGSAT 1 25 Feb 01:27:37 01:31:29 35° 286° (WNW) 01:35:21 437.445
RS-15 25 Feb 01:32:58 01:42:29 25° 46° (NE) 01:51:39 29.354- 29.394
NO-84 25 Feb 01:37:32 01:41:51 88° 52° (NE) 01:46:18 435.350 FM
SRMSAT 25 Feb 02:08:50 02:14:21 38° 181° (S) 02:19:52 437.500
Oscar 19 25 Feb 02:13:33 02:18:33 56° 285° (WNW) 02:23:33 437.125/150
ITUPSAT 1 25 Feb 02:38:01 02:42:48 85° 77° (ENE) 02:47:38 437.325
BEESAT 25 Feb 02:44:58 02:49:45 78° 258° (WSW) 02:54:33 436.000
ITAMSAT 1 25 Feb 02:46:59 02:51:01 22° 97° (E) 02:55:02 435.822/435.867
Gurwin Techsat 1B 25 Feb 02:54:36 02:59:35 42° 287° (WNW) 03:04:33 435.225
AO-85 25 Feb 02:55:37 02:57:12 12° 109° (ESE) 02:58:45 145.980
PCSat 25 Feb 03:00:43 03:05:48 42° 251° (WSW) 03:10:51 145.827
JUGNU 25 Feb 03:01:22 03:04:57 16° 198° (SSW) 03:08:33 437.505
MOZHAYETS 4 25 Feb 03:10:11 03:14:46 63° 76° (ENE) 03:19:22
RS-15 25 Feb 03:44:08 03:56:22 83° 247° (WSW) 04:07:57 29.354- 29.394
KKS-1 25 Feb 03:44:58 03:48:57 34° 73° (ENE) 03:52:57 437.445
AO-7 25 Feb 03:49:52 03:58:07 66° 105° (ESE) 04:06:19 .
SRMSAT 25 Feb 03:58:03 04:03:10 29° 191° (SSW) 04:08:17 437.500
CUBESAT XI-V 25 Feb 04:08:41 04:12:59 38° 74° (ENE) 04:17:17 437.345
STARS 25 Feb 04:20:10 04:24:09 36° 74° (ENE) 04:28:10 437.465
ITAMSAT 1 25 Feb 04:25:50 04:30:24 31° 289° (WNW) 04:34:56 435.822/435.867
AO-85 25 Feb 04:32:42 04:37:18 49° 298° (WNW) 04:41:33 145.980
M-CUBED/EXP-1 PRIME 25 Feb 04:56:11 04:59:32 76° 73° (ENE) 05:02:48 437.505
KKS-1 25 Feb 05:23:09 05:25:31 14° 265° (W) 05:27:54 437.445
CUTE-I 25 Feb 05:32:39 05:35:23 14° 95° (E) 05:38:06 437.470
AO-7 25 Feb 05:44:16 05:50:08 22° 299° (WNW) 05:56:01 .
CUBESAT XI-V 25 Feb 05:47:50 05:50:23 15° 265° (W) 05:52:57 437.345
SRMSAT 25 Feb 05:48:34 05:51:52 15° 199° (SSW) 05:55:10 437.500
KAITUO 1B 25 Feb 05:53:57 05:56:29 17° 96° (E) 05:59:00 145.475/437.950
BEESAT 3 25 Feb 05:55:29 05:59:18 63° 114° (ESE) 06:03:10 437.485
XW-2F 25 Feb 05:57:36 06:00:44 24° 97° (E) 06:03:50 145.980 - 146.000
STARS 25 Feb 05:58:33 06:00:33 13° 265° (W) 06:02:32 437.465
RS-15 25 Feb 06:01:42 06:06:54 14° 261° (W) 06:12:03 29.354- 29.394
XW-2D 25 Feb 06:01:50 06:05:12 30° 98° (E) 06:08:32 145.860 - 145.880
STRAND 1 25 Feb 06:03:53 06:06:50 16° 68° (ENE) 06:09:49 437.568
XW-2B 25 Feb 06:06:46 06:10:15 34° 98° (E) 06:13:42 145.730 - 145.750
DOVE 4 25 Feb 06:10:46 06:15:28 50° 100° (E) 06:20:25 437.250
XW-2C 25 Feb 06:15:14 06:18:54 46° 99° (E) 06:22:32 145.795 - 145.815
ISS 25 Feb 06:20:42 06:22:28 14° 125° (SE) 06:24:14 437.550
NUDT-PHONESAT 25 Feb 06:28:16 06:31:57 56° 100° (E) 06:35:36 437.300
LilacSat-2 25 Feb 06:31:36 06:35:26 88° 102° (ESE) 06:39:14 437.200
BEESAT 2 25 Feb 06:32:58 06:36:50 66° 114° (ESE) 06:40:45 435.950
HO-68 25 Feb 06:45:31 06:49:57 17° 95° (E) 06:54:22 435.675
Tancredo 1 25 Feb 06:45:55 06:48:49 30° 128° (SE) 06:51:44 437.200
CUTE 1.7 + AOD 2 25 Feb 06:54:54 06:56:17 11° 94° (E) 06:57:41 437.475
CUTE-I 25 Feb 07:10:23 07:15:35 51° 286° (WNW) 07:20:45 437.470
KAITUO 1B 25 Feb 07:27:38 07:30:21 19° 288° (WNW) 07:33:04 145.475/437.950
SO-50 25 Feb 07:28:17 07:32:16 31° 59° (ENE) 07:36:12 436.795
XW-2F 25 Feb 07:32:30 07:34:37 14° 289° (WNW) 07:36:42 145.980 - 146.000
XW-2D 25 Feb 07:37:36 07:39:03 12° 290° (WNW) 07:40:29 145.860 - 145.880
STRAND 1 25 Feb 07:40:42 07:45:34 45° 260° (W) 07:50:29 437.568
AAUSAT CUBESAT 2 25 Feb 07:42:19 07:44:09 13° 95° (E) 07:45:58 437.432
XW-2B 25 Feb 07:43:17 07:44:03 10° 290° (WNW) 07:44:49 145.730 - 145.750
XW-2A 25 Feb 07:45:36 07:49:03 74° 282° (WNW) 07:52:28 145.665 - 145.685
UWE-3 25 Feb 07:47:24 07:49:48 14° 94° (E) 07:52:10 435.000/436.395/437.385
SEEDS 25 Feb 07:50:25 07:54:19 39° 99° (E) 07:58:12 437.485
DOVE 4 25 Feb 07:50:34 07:52:45 13° 290° (WNW) 07:54:57 437.250
ISS 25 Feb 07:55:42 07:58:40 31° 317° (NW) 08:01:39 437.550
ZACube-1 25 Feb 08:09:07 08:11:22 14° 94° (E) 08:13:36 437.345
O/OREOS (USA 219) 25 Feb 08:15:22 08:17:45 14° 63° (ENE) 08:20:07 437.305
Tancredo 1 25 Feb 08:23:03 08:25:07 16° 321° (NW) 08:27:12 437.200
CUTE 1.7 + AOD 2 25 Feb 08:28:18 08:32:11 37° 285° (WNW) 08:36:02 437.475
HO-68 25 Feb 08:30:55 08:37:57 63° 288° (WNW) 08:44:58 435.675
PRISM 25 Feb 08:40:32 08:43:55 26° 73° (ENE) 08:47:18 437.425
CUBEBUG 2 25 Feb 08:43:51 08:48:34 67° 283° (WNW) 08:53:12 437.445
UNISAT 6 25 Feb 08:48:45 08:50:31 12° 68° (ENE) 08:52:17 437.425
TIGRISAT 25 Feb 08:49:35 08:50:54 11° 68° (ENE) 08:52:15 435.000
AO-73 25 Feb 08:55:52 09:00:14 48° 100° (E) 09:04:29 145.935
Oscar 11 25 Feb 09:02:50 09:07:01 50° 100° (E) 09:11:10 .
FO-29 25 Feb 09:02:51 09:06:35 15° 62° (ENE) 09:10:28 435.910
SO-50 25 Feb 09:09:24 09:12:25 18° 251° (WSW) 09:15:26 436.795
AAUSAT CUBESAT 2 25 Feb 09:15:57 09:19:37 32° 286° (WNW) 09:23:16 437.432
DELFI C3 25 Feb 09:16:01 09:18:41 17° 96° (E) 09:21:21 145.870
UWE-3 25 Feb 09:22:01 09:26:19 38° 286° (WNW) 09:30:32 435.000/436.395/437.385
SEEDS 25 Feb 09:28:19 09:29:35 11° 291° (WNW) 09:30:51 437.485
ZACube-1 25 Feb 09:43:32 09:47:42 37° 286° (WNW) 09:51:47 437.345
O/OREOS (USA 219) 25 Feb 09:52:58 09:57:14 40° 256° (WSW) 10:01:31 437.305
PRISM 25 Feb 10:16:34 10:19:07 16° 264° (W) 10:21:40 437.425
UNISAT 6 25 Feb 10:22:30 10:26:43 44° 261° (W) 10:31:04 437.425
TIGRISAT 25 Feb 10:22:47 10:27:04 48° 261° (W) 10:31:27 435.000
AO-73 25 Feb 10:34:45 10:35:55 11° 292° (WNW) 10:37:05 145.935
YUBILEINY 25 Feb 10:37:27 10:46:15 79° 93° (E) 10:55:04 435.215
FO-29 25 Feb 10:43:40 10:50:27 82° 257° (WSW) 10:58:04 435.910
DELFI C3 25 Feb 10:50:21 10:53:21 21° 287° (WNW) 10:56:21 145.870
ESTCUBE 1 25 Feb 11:01:00 11:04:13 19° 96° (E) 11:07:26 437.505/2401.250
DUCHIFAT 1 25 Feb 11:12:44 11:16:33 36° 74° (ENE) 11:20:25 145.980
EO-79 25 Feb 11:23:05 11:27:13 63° 77° (ENE) 11:31:25 145.935-145.965
VELOX 1 25 Feb 11:28:39 11:29:46 11° 94° (E) 11:30:53 145.980
LO-87 25 Feb 11:34:21 11:37:53 55° 283° (WNW) 11:41:25 145.935 - 145.965
SPROUT 25 Feb 11:37:19 11:38:21 11° 94° (E) 11:39:23 437.525
AIST 2D 25 Feb 11:37:38 11:40:55 36° 261° (W) 11:44:13 435.315
